SAS105 ESGG-ENGM

Flight info

Callsign SAS105
Flight time 0h 49m
Altitude 22000
Route SABAK L997 XENTA DCT REGMA DCT LUNIP
Aircraft RJ70/M-SDFGIRWY/LB1

Departure

Time 2026-04-30 05:03
Airport Göteborg Landvetter Airport (ESGG)

Arrival

Time 2026-04-30 05:52
Airport Oslo-Gardermoen International Airport (ENGM)
Time Latitude Longitude Altitude Speed Heading
2026-04-30 04:42 57.66886 12.29430 516 ft 0 kts 115°
2026-04-30 04:51 57.66893 12.29403 516 ft 4 kts 115°
2026-04-30 04:51 57.66905 12.29353 516 ft 4 kts 115°
2026-04-30 04:51 57.66927 12.29319 516 ft 4 kts 173°
2026-04-30 04:51 57.66955 12.29331 516 ft 4 kts 203°
2026-04-30 04:52 57.66982 12.29354 516 ft 4 kts 206°
2026-04-30 04:52 57.66997 12.29368 516 ft 0 kts 206°
2026-04-30 04:56 57.66989 12.29361 516 ft 3 kts 206°
2026-04-30 04:56 57.66980 12.29316 516 ft 6 kts 299°
2026-04-30 04:56 57.67004 12.29227 516 ft 10 kts 302°
2026-04-30 04:57 57.67081 12.29221 516 ft 15 kts 25°
2026-04-30 04:57 57.67193 12.29322 516 ft 21 kts 26°
2026-04-30 04:57 57.67330 12.29446 516 ft 22 kts 26°
2026-04-30 04:57 57.67461 12.29565 516 ft 20 kts 26°
2026-04-30 04:58 57.67533 12.29602 516 ft 5 kts 335°
2026-04-30 04:58 57.67554 12.29563 516 ft 6 kts 299°
2026-04-30 04:58 57.67576 12.29471 516 ft 10 kts 294°
2026-04-30 04:58 57.67592 12.29368 516 ft 0 kts 265°
2026-04-30 05:00 57.67592 12.29364 516 ft 2 kts 265°
2026-04-30 05:00 57.67589 12.29291 515 ft 9 kts 267°
2026-04-30 05:00 57.67586 12.29163 516 ft 9 kts 225°
2026-04-30 05:00 57.67571 12.29146 515 ft 0 kts 208°
2026-04-30 05:01 57.67555 12.29130 515 ft 15 kts 208°
2026-04-30 05:01 57.67312 12.28913 516 ft 61 kts 206°
2026-04-30 05:02 57.66804 12.28445 512 ft 100 kts 206°
2026-04-30 05:02 57.66084 12.27786 529 ft 127 kts 207°
2026-04-30 05:02 57.65269 12.27024 653 ft 135 kts 207°
2026-04-30 05:02 57.64431 12.26272 903 ft 134 kts 206°
2026-04-30 05:03 57.63532 12.25490 1028 ft 146 kts 207°
2026-04-30 05:03 57.62630 12.24699 1355 ft 144 kts 208°
2026-04-30 05:03 57.61715 12.23914 1641 ft 146 kts 209°
2026-04-30 05:03 57.60796 12.23108 1907 ft 147 kts 210°
2026-04-30 05:04 57.59866 12.22273 2132 ft 150 kts 210°
2026-04-30 05:04 57.58922 12.21425 2385 ft 151 kts 211°
2026-04-30 05:04 57.57975 12.20561 2596 ft 152 kts 211°
2026-04-30 05:04 57.57079 12.19546 2804 ft 149 kts 235°
2026-04-30 05:05 57.56746 12.17802 3222 ft 141 kts 259°
2026-04-30 05:05 57.56509 12.16009 3646 ft 144 kts 260°
2026-04-30 05:05 57.56285 12.14139 4019 ft 152 kts 261°
2026-04-30 05:06 57.55854 12.10130 4810 ft 164 kts 262°
2026-04-30 05:06 57.55637 12.08009 5197 ft 170 kts 262°
2026-04-30 05:06 57.55410 12.05809 5543 ft 177 kts 262°
2026-04-30 05:06 57.55173 12.03519 5893 ft 183 kts 262°
2026-04-30 05:07 57.54920 12.01112 6128 ft 199 kts 262°
2026-04-30 05:07 57.54645 11.98427 6278 ft 226 kts 262°
2026-04-30 05:07 57.54346 11.95428 6599 ft 243 kts 264°
2026-04-30 05:07 57.54522 11.92317 7006 ft 246 kts 299°
2026-04-30 05:08 57.55646 11.90006 7594 ft 242 kts 327°
2026-04-30 05:08 57.57066 11.88291 8244 ft 244 kts 330°
2026-04-30 05:08 57.58539 11.86681 8957 ft 246 kts 333°
2026-04-30 05:08 57.60053 11.85168 9728 ft 248 kts 335°
2026-04-30 05:09 57.61603 11.83742 10511 ft 249 kts 343°
2026-04-30 05:09 57.63283 11.82994 11194 ft 253 kts 352°
2026-04-30 05:09 57.65069 11.82416 11653 ft 268 kts 352°
2026-04-30 05:09 57.66971 11.81834 11949 ft 287 kts 353°
2026-04-30 05:10 57.69000 11.81232 12194 ft 303 kts 352°
2026-04-30 05:10 57.71136 11.80579 12395 ft 318 kts 352°
2026-04-30 05:10 57.73360 11.79857 12615 ft 328 kts 351°
2026-04-30 05:10 57.75616 11.79099 13052 ft 330 kts 351°
2026-04-30 05:11 57.77852 11.78333 13501 ft 332 kts 351°
2026-04-30 05:11 57.80131 11.77538 13951 ft 334 kts 351°
2026-04-30 05:11 57.82419 11.76732 14385 ft 335 kts 351°
2026-04-30 05:11 57.84718 11.75914 14781 ft 337 kts 351°
2026-04-30 05:12 57.87028 11.75088 15180 ft 339 kts 351°
2026-04-30 05:12 57.89349 11.74252 15581 ft 340 kts 351°
2026-04-30 05:12 57.91681 11.73423 15977 ft 342 kts 352°
2026-04-30 05:12 57.94028 11.72619 16363 ft 343 kts 351°
2026-04-30 05:13 57.96379 11.71787 16788 ft 344 kts 351°
2026-04-30 05:13 57.98742 11.70948 17161 ft 346 kts 351°
2026-04-30 05:13 58.01120 11.70101 17530 ft 349 kts 351°
2026-04-30 05:13 58.03509 11.69249 17900 ft 351 kts 351°
2026-04-30 05:14 58.05914 11.68383 18267 ft 353 kts 351°
2026-04-30 05:14 58.08330 11.67516 18637 ft 354 kts 351°
2026-04-30 05:14 58.10760 11.66673 18973 ft 356 kts 351°
2026-04-30 05:14 58.13199 11.65797 19313 ft 357 kts 351°
2026-04-30 05:15 58.15642 11.64916 19651 ft 358 kts 351°
2026-04-30 05:15 58.18093 11.64036 19974 ft 359 kts 351°
2026-04-30 05:15 58.20558 11.63238 20298 ft 360 kts 352°
2026-04-30 05:15 58.23033 11.62493 20625 ft 361 kts 353°
2026-04-30 05:16 58.25518 11.61765 20937 ft 362 kts 353°
2026-04-30 05:16 58.27982 11.61048 21242 ft 363 kts 353°
2026-04-30 05:16 58.30488 11.60283 21558 ft 364 kts 352°
2026-04-30 05:16 58.32990 11.59499 21864 ft 365 kts 352°
2026-04-30 05:17 58.35506 11.58702 22175 ft 366 kts 352°
2026-04-30 05:17 58.38027 11.57915 22360 ft 370 kts 352°
2026-04-30 05:17 58.40540 11.57140 22405 ft 363 kts 352°
2026-04-30 05:17 58.43033 11.56359 22434 ft 364 kts 352°
2026-04-30 05:18 58.45535 11.55592 22432 ft 364 kts 352°
2026-04-30 05:18 58.48035 11.54805 22444 ft 364 kts 352°
2026-04-30 05:18 58.50531 11.54020 22440 ft 363 kts 352°
2026-04-30 05:18 58.53033 11.53251 22437 ft 365 kts 352°
2026-04-30 05:19 58.55548 11.52492 22434 ft 366 kts 352°
2026-04-30 05:19 58.58063 11.51734 22437 ft 366 kts 352°
2026-04-30 05:19 58.60575 11.50947 22438 ft 366 kts 351°
2026-04-30 05:19 58.63088 11.50145 22438 ft 366 kts 352°
2026-04-30 05:20 58.65607 11.49367 22437 ft 367 kts 352°
2026-04-30 05:20 58.68128 11.48550 22437 ft 367 kts 352°
2026-04-30 05:20 58.70651 11.47768 22437 ft 367 kts 352°
2026-04-30 05:20 58.73173 11.46967 22438 ft 367 kts 351°
2026-04-30 05:21 58.75693 11.46165 22432 ft 367 kts 352°
2026-04-30 05:21 58.78219 11.45376 22435 ft 367 kts 352°
2026-04-30 05:21 58.80739 11.44557 22439 ft 368 kts 352°
2026-04-30 05:21 58.83267 11.43765 22416 ft 368 kts 351°
2026-04-30 05:22 58.85810 11.42958 22427 ft 373 kts 351°
2026-04-30 05:22 58.88379 11.42139 22434 ft 375 kts 351°
2026-04-30 05:22 58.90950 11.41319 22438 ft 374 kts 351°
2026-04-30 05:22 58.93515 11.40499 22437 ft 374 kts 351°
2026-04-30 05:23 58.96085 11.39676 22436 ft 374 kts 351°
2026-04-30 05:23 58.98657 11.38853 22431 ft 375 kts 351°
2026-04-30 05:23 59.01226 11.38033 22433 ft 375 kts 351°
2026-04-30 05:23 59.03798 11.37207 22432 ft 375 kts 351°
2026-04-30 05:24 59.06368 11.36382 22434 ft 375 kts 351°
2026-04-30 05:24 59.08942 11.35556 22435 ft 375 kts 351°
2026-04-30 05:24 59.11513 11.34699 22442 ft 374 kts 349°
2026-04-30 05:24 59.14055 11.33617 22434 ft 373 kts 347°
2026-04-30 05:25 59.16584 11.32446 22427 ft 373 kts 349°
2026-04-30 05:25 59.19166 11.32359 22435 ft 374 kts
2026-04-30 05:25 59.21686 11.33451 22438 ft 377 kts 13°
2026-04-30 05:25 59.24212 11.34860 22434 ft 377 kts 15°
2026-04-30 05:26 59.26709 11.36434 22435 ft 377 kts 16°
2026-04-30 05:26 59.29199 11.38078 22433 ft 377 kts 17°
2026-04-30 05:26 59.31689 11.39739 22431 ft 378 kts 16°
2026-04-30 05:26 59.34177 11.41372 22426 ft 378 kts 16°
2026-04-30 05:27 59.36669 11.43002 22424 ft 377 kts 16°
2026-04-30 05:27 59.39168 11.44578 22401 ft 378 kts 15°
2026-04-30 05:27 59.41684 11.46153 21610 ft 378 kts 15°
2026-04-30 05:27 59.44180 11.47709 20822 ft 373 kts 15°
2026-04-30 05:28 59.46632 11.49266 20079 ft 368 kts 16°
2026-04-30 05:28 59.49050 11.50820 19356 ft 363 kts 16°
2026-04-30 05:28 59.51439 11.52351 18640 ft 359 kts 16°
2026-04-30 05:28 59.53798 11.53859 17843 ft 355 kts 16°
2026-04-30 05:29 59.56134 11.55351 17062 ft 351 kts 16°
2026-04-30 05:29 59.58450 11.56801 16307 ft 348 kts 16°
2026-04-30 05:29 59.60741 11.58261 15566 ft 345 kts 16°
2026-04-30 05:29 59.62995 11.59667 14847 ft 342 kts 15°
2026-04-30 05:30 59.65289 11.61122 14113 ft 340 kts 16°
2026-04-30 05:30 59.67504 11.62534 13331 ft 339 kts 15°
2026-04-30 05:30 59.69747 11.63957 12562 ft 338 kts 15°
2026-04-30 05:30 59.71984 11.65379 11823 ft 336 kts 15°
2026-04-30 05:31 59.74171 11.66769 11562 ft 323 kts 15°
2026-04-30 05:31 59.76316 11.68134 11456 ft 324 kts 15°
2026-04-30 05:31 59.78442 11.69493 10979 ft 321 kts 15°
2026-04-30 05:31 59.80588 11.70862 10559 ft 324 kts 15°
2026-04-30 05:32 59.82729 11.72251 10465 ft 324 kts 16°
2026-04-30 05:32 59.84873 11.73657 10443 ft 323 kts 15°
2026-04-30 05:32 59.87015 11.75033 10424 ft 324 kts 15°
2026-04-30 05:32 59.89157 11.76411 10421 ft 323 kts 15°
2026-04-30 05:33 59.91299 11.77786 10417 ft 324 kts 15°
2026-04-30 05:33 59.93447 11.79207 10429 ft 324 kts 16°
2026-04-30 05:33 59.95600 11.80627 10428 ft 326 kts 15°
2026-04-30 05:33 59.97752 11.82035 10423 ft 325 kts 15°
2026-04-30 05:34 59.99909 11.83441 10420 ft 326 kts 15°
2026-04-30 05:34 60.02041 11.84832 10420 ft 327 kts 15°
2026-04-30 05:34 60.04247 11.85631 10378 ft 318 kts 358°
2026-04-30 05:34 60.06450 11.85257 9377 ft 319 kts 352°
2026-04-30 05:35 60.08646 11.84702 8580 ft 316 kts 352°
2026-04-30 05:35 60.10811 11.84104 7818 ft 312 kts 351°
2026-04-30 05:35 60.12957 11.83446 7262 ft 310 kts 351°
2026-04-30 05:35 60.15082 11.82758 7100 ft 310 kts 350°
2026-04-30 05:36 60.17211 11.82053 7051 ft 309 kts 350°
2026-04-30 05:36 60.19306 11.81343 7031 ft 310 kts 350°
2026-04-30 05:36 60.21432 11.80622 7017 ft 309 kts 350°
2026-04-30 05:36 60.23552 11.79899 7029 ft 309 kts 350°
2026-04-30 05:37 60.25671 11.79183 7012 ft 308 kts 350°
2026-04-30 05:37 60.27717 11.77974 7016 ft 309 kts 330°
2026-04-30 05:37 60.29236 11.74954 7030 ft 307 kts 302°
2026-04-30 05:37 60.29809 11.72403 7027 ft 294 kts 293°
2026-04-30 05:38 60.30506 11.68692 7011 ft 273 kts 293°
2026-04-30 05:38 60.31291 11.65341 6998 ft 260 kts 311°
2026-04-30 05:38 60.32762 11.63372 7009 ft 258 kts 345°
2026-04-30 05:38 60.34546 11.62897 7024 ft 259 kts 354°
2026-04-30 05:39 60.36336 11.62555 7023 ft 258 kts 354°
2026-04-30 05:39 60.38691 11.63329 7022 ft 262 kts 21°
2026-04-30 05:39 60.39748 11.64524 7024 ft 265 kts 34°
2026-04-30 05:39 60.41198 11.66827 7039 ft 265 kts 33°
2026-04-30 05:40 60.42742 11.68845 7017 ft 262 kts 23°
2026-04-30 05:40 60.44427 11.70234 7024 ft 262 kts 18°
2026-04-30 05:40 60.46130 11.71532 7021 ft 261 kts 18°
2026-04-30 05:40 60.47837 11.72809 7012 ft 262 kts 18°
2026-04-30 05:41 60.49547 11.74065 7027 ft 262 kts 17°
2026-04-30 05:41 60.51234 11.75285 7013 ft 250 kts 17°
2026-04-30 05:41 60.52817 11.76445 7003 ft 235 kts 17°
2026-04-30 05:41 60.54314 11.77556 6996 ft 222 kts 15°
2026-04-30 05:42 60.55792 11.77732 6988 ft 213 kts 340°
2026-04-30 05:42 60.56916 11.75838 7007 ft 218 kts 300°
2026-04-30 05:42 60.57431 11.72955 7022 ft 222 kts 291°
2026-04-30 05:42 60.57884 11.69910 7018 ft 222 kts 289°
2026-04-30 05:43 60.58288 11.66922 7033 ft 223 kts 288°
2026-04-30 05:43 60.58304 11.63772 7013 ft 232 kts 254°
2026-04-30 05:43 60.57330 11.61105 7020 ft 242 kts 223°
2026-04-30 05:43 60.56036 11.58909 7017 ft 241 kts 227°
2026-04-30 05:44 60.54867 11.56504 7010 ft 236 kts 230°
2026-04-30 05:44 60.53734 11.54114 6839 ft 235 kts 229°
2026-04-30 05:44 60.52595 11.51744 6610 ft 234 kts 228°
2026-04-30 05:44 60.51455 11.49400 6387 ft 233 kts 228°
2026-04-30 05:45 60.50318 11.47062 6154 ft 232 kts 228°
2026-04-30 05:45 60.49186 11.44741 5916 ft 231 kts 228°
2026-04-30 05:45 60.48054 11.42439 5673 ft 230 kts 228°
2026-04-30 05:45 60.46925 11.40141 5461 ft 229 kts 227°
2026-04-30 05:46 60.45792 11.37865 5225 ft 229 kts 227°
2026-04-30 05:46 60.44662 11.35607 5002 ft 228 kts 227°
2026-04-30 05:46 60.43532 11.33353 4770 ft 228 kts 227°
2026-04-30 05:46 60.42408 11.31104 4569 ft 226 kts 227°
2026-04-30 05:47 60.41293 11.28862 4355 ft 224 kts 227°
2026-04-30 05:47 60.40185 11.26621 3912 ft 226 kts 227°
2026-04-30 05:47 60.39057 11.24346 3657 ft 229 kts 226°
2026-04-30 05:47 60.37937 11.22110 3542 ft 224 kts 226°
2026-04-30 05:48 60.36845 11.19943 3526 ft 215 kts 226°
2026-04-30 05:48 60.35705 11.18078 3491 ft 208 kts 213°
2026-04-30 05:48 60.34428 11.16674 3358 ft 214 kts 201°
2026-04-30 05:48 60.33035 11.15851 3130 ft 204 kts 199°
2026-04-30 05:49 60.31699 11.14982 2861 ft 200 kts 198°
2026-04-30 05:49 60.30399 11.14213 2562 ft 190 kts 198°
2026-04-30 05:49 60.29191 11.13527 2366 ft 173 kts 197°
2026-04-30 05:49 60.28045 11.12865 2071 ft 169 kts 197°
2026-04-30 05:50 60.26958 11.12240 1819 ft 158 kts 196°
2026-04-30 05:50 60.25924 11.11653 1593 ft 148 kts 196°
2026-04-30 05:50 60.24970 11.11108 1382 ft 138 kts 196°
2026-04-30 05:50 60.24056 11.10583 1203 ft 136 kts 196°
2026-04-30 05:51 60.23149 11.10058 1030 ft 136 kts 196°
2026-04-30 05:51 60.22240 11.09538 846 ft 136 kts 195°
2026-04-30 05:51 60.21336 11.09030 696 ft 133 kts 195°
2026-04-30 05:51 60.20557 11.08562 683 ft 86 kts 197°
2026-04-30 05:52 60.20148 11.08325 682 ft 50 kts 195°
2026-04-30 05:52 60.19901 11.08387 682 ft 23 kts 120°
2026-04-30 05:52 60.19880 11.08524 676 ft 2 kts 104°
2026-04-30 05:52 60.19873 11.08584 679 ft 6 kts 106°
2026-04-30 05:53 60.19859 11.08677 681 ft 7 kts 107°
2026-04-30 05:53 60.19845 11.08770 683 ft 7 kts 107°
2026-04-30 05:53 60.19831 11.08869 685 ft 8 kts 107°
2026-04-30 05:53 60.19813 11.08989 688 ft 11 kts 106°
2026-04-30 05:54 60.19790 11.09150 688 ft 14 kts 106°
2026-04-30 05:54 60.19757 11.09381 691 ft 20 kts 105°
2026-04-30 05:54 60.19716 11.09661 688 ft 21 kts 107°
2026-04-30 05:54 60.19680 11.09892 684 ft 9 kts 103°
2026-04-30 05:55 60.19670 11.09966 691 ft 5 kts 107°
2026-04-30 05:55 60.19667 11.09982 691 ft 0 kts 107°